Regional Weather Roundup
Issued by NWS State College, PA

Home | Current Version | Previous Version | Text Only | Print | Product List | Glossary On
Versions: 1 2 3 4 5 6 7 8 9 10 11 12 13 14 15 16 17 18 19 20 21 22 23 24 25 26 27 28 29 30 31 32 33 34 35 36 37 38 39 40 41 42 43 44 45 46 47 48 49 50
000
ASUS41 KCTP 282110
RWRCTP

REGIONAL WEATHER ROUNDUP
NATIONAL WEATHER SERVICE STATE COLLEGE PA
500 PM EDT SUN AUG 28 2016

Note: "fair" indicates few or no clouds below 12,000 feet with no
significant weather and/or obstructions to visibility.

* = STATION THAT DOES NOT REPORT PRECIPITATION /E.G. RAIN...SNOW...ETC/
    THUNDER OR FOG.

PAZ002>004-007>009-013>016-020>023-029>032-282200-
WESTERN PENNSYLVANIA

CITY           SKY/WX    TMP DP  RH WIND       PRES   REMARKS
ERIE           SUNNY     84  72  67 W9        30.17S
MEADVILLE      MOSUNNY   85  67  54 NW6       30.20R
FRANKLIN*        N/A     88  70  55 NW5       30.20S
NEW CASTLE     MOCLDY    87  70  56 N9        30.16F
BEAVER COUNTY  NOT AVBL
BUTLER*        NOT AVBL
PITTSBURGH INT MOSUNNY   88  70  55 W7        30.15F
PITTSBURGH     MOSUNNY   89  70  53 SE3       30.15F
INDIANA*       MOSUNNY   88  72  58 W6        30.20S
LATROBE        MOSUNNY   88  72  58 NW3       30.17F
WASHINGTON CO* MOSUNNY   88  72  58 W3        30.16F
$$

PAZ004>006-010>012-017>019-024>028-033>037-041-042-045-046-049>053-282200-
CENTRAL PENNSYLVANIA

CITY           SKY/WX    TMP DP  RH WIND       PRES   REMARKS
BRADFORD       MOSUNNY   82  68  62 W10       30.21F
DUBOIS         CLOUDY    84  70  62 SW6       30.19F
CLEARFIELD     CLOUDY    70  70 100 CALM      30.22F
JOHNSTOWN      MOSUNNY   84  67  56 S6        30.23F
ALTOONA        SUNNY     89  68  49 VRB7      30.20S
STATE COLLEGE  RAIN      68  64  88 NE6       30.25R
WILLIAMSPORT   MOSUNNY   88  67  49 S6        30.13F
SELINSGROVE    SUNNY     88  69  53 S10       30.16F
FT INDIANTOWN  SUNNY     87  62  42 S8        30.18F
CAPITAL CITY   SUNNY     90  61  37 SE12      30.16F
HARRISBURG     MOSUNNY   89  64  43 SE8       30.16S
YORK           SUNNY     88  63  43 VRB5      30.18S
$$

PAZ038>040-043-044-047-048-054-055-060>062-067>071-282200-
EASTERN PENNSYLVANIA

CITY           SKY/WX    TMP DP  RH WIND       PRES   REMARKS
SCRANTON       SUNNY     85  63  47 S8        30.18F
MOUNT POCONO   SUNNY     79  58  48 SW10      30.25F
ALLENTOWN      SUNNY     90  61  37 SW8       30.17F
QUAKERTOWN*    CLEAR     90  59  35 CALM      30.18F
READING        SUNNY     88  62  41 SW8       30.16F
LANCASTER      SUNNY     87  63  44 S8        30.18F
COATESVILLE    CLEAR     84  63  48 VRB5      30.21F
POTTSTOWN      SUNNY     87  61  41 VRB6      30.19F
BLUE BELL      SUNNY     86  63  45 S6        30.17F
DOYLESTOWN     SUNNY     88  63  43 VRB3      30.16F
WILLOW GROVE   NOT AVBL
NORTH PHILA    MOSUNNY   89  64  43 VRB3      30.18F
PHILADELPHIA   MOSUNNY   89  63  41 S8        30.16F
$$




USA.gov is the U.S. government's official web portal to all federal, state and local government web resources and services.